Weather History for Deming, NM

Change the Weather History Date:

Friday, April 4, 2014

  Actual Average Record
Temperature  
Mean Temperature 53 °F 56 °F  
Max Temperature 70 °F 73 °F 89 °F (1961)
Min Temperature 36 °F 38 °F 26 °F (1956)
Degree Days  
Heating Degree Days 12    
Growing Degree Days 3 (Base 50)    
Moisture  
Dew Point 10 °F    
Average Humidity 19    
Maximum Humidity 29    
Minimum Humidity 9    
Precipitation  
Precipitation 0.00 in 0.01 in 0.50 in (2004)
Month to date precipitation 0.00 0.04  
Year to date precipitation 0.37 1.66  
Sea Level Pressure  
Sea Level Pressure 29.89 in    
Wind  
Wind Speed 9 mph (ESE)    
Max Wind Speed 20 mph    
Max Gust Speed 25 mph    
Visibility 10 miles    
Events      
T = Trace of Precipitation, MM = Missing Value Source: NWS Daily Summary

Daily Weather History Graph

Daily Weather History Graph

Search for Another Location

Airport:

Trip Planner

Search our weather history database for the weather conditions in past years. The results will help you decide how hot, cold, wet, or windy it might be!

Date:

Astronomy

Apr. 04, 2014 Rise Set
Actual Time 6:55 AM MDT 7:32 PM MDT
Civil Twilight 6:30 AM MDT 7:57 PM MDT
Nautical Twilight 6:01 AM MDT 8:26 PM MDT
Astronomical Twilight 5:31 AM MDT 8:56 PM MDT
Moon 10:26 AM MDT (4/4) No Moon Set
Length of Visible Light 13h 27m
Length of Day
12h 37m
Waxing Crescent, 26% of the Moon is Illuminated
Apr 4
Waxing Crescent
Apr 7
First Quarter
Apr 15
Full
Apr 22
Last Quarter
Apr 29
New

Hourly Weather History & Observations

Time (MDT) Temp. Windchill Dew Point Humidity Pressure Visibility Wind Dir Wind Speed Gust Speed Precip Events Conditions
12:53 AM 44.1 °F 38.6 °F 9.0 °F 24% 29.96 in 10.0 mi ENE 10.4 mph - N/A   Clear
1:53 AM 44.1 °F 40.1 °F 8.1 °F 23% 29.96 in 10.0 mi East 6.9 mph - N/A   Clear
2:53 AM 46.9 °F - 9.0 °F 21% 29.94 in 10.0 mi ENE 13.8 mph - N/A   Clear
3:53 AM 44.1 °F 39.0 °F 9.0 °F 24% 29.95 in 10.0 mi East 9.2 mph - N/A   Clear
4:53 AM 37.0 °F 31.6 °F 7.0 °F 29% 29.96 in 10.0 mi SE 6.9 mph - N/A   Clear
5:53 AM 37.9 °F 33.5 °F 8.1 °F 29% 29.97 in 10.0 mi SE 5.8 mph - N/A   Clear
6:53 AM 37.9 °F 30.9 °F 8.1 °F 29% 29.99 in 10.0 mi ESE 10.4 mph - N/A   Clear
7:53 AM 41.0 °F 34.7 °F 9.0 °F 27% 30.02 in 10.0 mi East 10.4 mph - N/A   Clear
8:53 AM 46.9 °F - 10.0 °F 22% 30.02 in 10.0 mi East 12.7 mph - N/A   Clear
9:53 AM 53.1 °F - 15.1 °F 22% 30.01 in 10.0 mi East 16.1 mph - N/A   Clear
10:53 AM 55.9 °F - 17.1 °F 22% 30.00 in 10.0 mi East 15.0 mph - N/A   Clear
11:53 AM 60.1 °F - 15.1 °F 17% 29.96 in 10.0 mi ESE 15.0 mph 24.2 mph N/A   Clear
12:53 PM 64.0 °F - 12.0 °F 13% 29.91 in 10.0 mi East 15.0 mph 20.7 mph N/A   Clear
1:53 PM 66.9 °F - 12.9 °F 12% 29.86 in 10.0 mi ESE 12.7 mph 19.6 mph N/A   Clear
2:53 PM 68.0 °F - 14.0 °F 12% 29.82 in 10.0 mi South 10.4 mph 21.9 mph N/A   Clear
3:53 PM 66.9 °F - 12.0 °F 12% 29.81 in 10.0 mi Variable 6.9 mph - N/A   Clear
4:53 PM 69.1 °F - 9.0 °F 10% 29.80 in 10.0 mi South 8.1 mph - N/A   Clear
5:53 PM 69.1 °F - 8.1 °F 9% 29.77 in 10.0 mi South 9.2 mph - N/A   Clear
6:53 PM 66.9 °F - 9.0 °F 10% 29.77 in 10.0 mi South 5.8 mph - N/A   Clear
7:53 PM 64.0 °F - 9.0 °F 12% 29.78 in 10.0 mi Calm Calm - N/A   Clear
8:53 PM 61.0 °F - 10.0 °F 13% 29.78 in 10.0 mi Calm Calm - N/A   Clear
9:53 PM 57.0 °F - 9.0 °F 15% 29.78 in 10.0 mi SE 3.5 mph - N/A   Clear
10:53 PM 57.9 °F - 9.0 °F 14% 29.76 in 10.0 mi SSW 5.8 mph - N/A   Clear
11:53 PM 55.9 °F - 9.0 °F 15% 29.74 in 10.0 mi WSW 4.6 mph - N/A   Clear